Aérodrome :
LOGIN :

S'inscrire | Disclaimer

   EN    FR    IT 

 










Légende :    VFR   VFR Marginal   IFR   IFR Intensif   IFR Très Intensif
Visi : 
Plafond : 
>= 8 km
>= 3000ft
5 à 8 km
1000 à 3000 ft
1500m à 5 km
500 à 1000 ft
800 à 1500m
200 à 500 ft
< 800m
< 200 ft
Symboles :   Orages  Brouillard  Fortes neiges  Fortes précipitations  Vent > 20 kt
SIGMETs :   Divers  Orages  Givrage  Turbulence  Onde Orograph.  Cendres Volcan.






- Altitude de l'aérodrome : 74 ft
- Code IATA : MRS


LFML - Marseille / Marignane

DERNIER METAR :
  • 262330Z AUTO 29018KT CAVOK 12/06 Q1012 NOSIG

METARs EXPIRÉS :
  • 262300Z AUTO 29019KT CAVOK 12/07 Q1012 NOSIG
  • 262230Z AUTO 29019KT CAVOK 12/07 Q1012 NOSIG
  • 262200Z AUTO 28018KT CAVOK 12/07 Q1012 NOSIG
  • 262130Z AUTO 29020KT CAVOK 12/07 Q1011 NOSIG
  • 262100Z AUTO 29019KT CAVOK 12/07 Q1011 NOSIG

TAF TAF LFML
Valide du 26 à 21h jusqu'au 28 à 03h UTC


262000Z 2621/2803 31015KT CAVOK TX20/2714Z TN09/2706Z
ATIS : +33 4 42 31 15 15



MET'MAP, la Météo Aéronautique d'un coup d'oeil ! - Copyright ORBIFLY Décembre 2007 - Disclaimer

ORBIFLY MET'MAP TEAM :

Programmation & Développement : Alexandra Zaïnal
Sur une idée originale de : Baudouin d'Aumeries
Assistance à la programmation : Marc-Olivier Méhu
Soutien technique & logistique : Manuel Goepfert

Contact : metmap@orbifly.com




SOURCES & CREDITS :

   NOAA